Starlink 11659

operational
NORAD ID: 63266 Int'l Des: 2025-053 Owner: SPXS Country: US Constellation: starlink
LEOCIRCULAR

About Starlink 11659

Description loading...

Live Position

Loading 3D Globe...

Upcoming Passes

Altitude History

Altitude vs Time

uPlot chart will show altitude changes over time

Two-Line Element Set

1 63266U 25053B 25260.69846032 .00006304 00000-0 52584-4 0 9992
2 63266 43.0000 74.8562 0002565 276.6672 83.3904 15.70842097 30461
Epoch: Sep 17, 2025 • Age: 13 hours

Current Status

Altitude 357.1 km
Velocity 7.70 km/s
Sub-Earth Point 21.33°N, 145.67°E
Launch Date Mar 15, 2025
Age 0.5 years
Type internet

Technical Details

Classification Payload
Mass 960.00 kg
Dry Mass 910.00 kg
Total Mass 960.00 kg
Length 0.30 m
Diameter 4.10 m
Span 29.00 m
Shape Box + pan
Manufacturer SPXS
Bus Type Starlink V2MD
Phase Status In Orbit
Owner/State SPXS/US

Large Constellations

Loading constellations...